Location: Baggett Branch
(32.6074°N, 97.0167°W)
Time: 10:15:32
(UTC+00:00)

Cosmos 1782 Rocket - Pass Details

Date: 10 February 2026
Orbit: 600 x 624 km, 82.5° (Epoch: 7 March)

Event Time Altitude Azimuth Distance (km) Brightness Sun altitude
Rises 12:41:25 0° 192° (SSW) 2,863 7.0 -7.8°
Reaches altitude 10° 12:43:38 10° 195° (SSW) 1,966 6.1 -7.3°
Maximum altitude 12:47:57 65° 277° (W) 681 3.5 -6.5°
Drops below altitude 10° 12:52:20 10° 360° (N) 1,992 6.0 -5.6°
Sets 12:54:36 0° 3° (N) 2,905 6.9 -5.1°
